Location: Sternwarte ZA, Rosenfeld-Brittheim
(48.2889°N, 8.6789°E)
Time: 10:01:26
(UTC+02:00)

ISS - Visible Passes

Search period start: 21 October 2018 00:00
Search period end: 30 October 2018 23:00
Orbit: 403 x 408 km, 51.6° (Epoch: 21 October)

Date Brightness Start Highest point End Pass type
(mag) Time Alt. Az. Time Alt. Az. Time Alt. Az.
26 Oct -0.9 07:06:10 10° S 07:08:13 16° SE 07:10:17 10° E visible
28 Oct -2.0 05:57:26 10° SSW 06:00:22 30° SE 06:03:18 10° E visible
29 Oct -1.3 05:06:46 13° S 05:08:29 19° SE 05:10:54 10° E visible
30 Oct -0.6 04:17:23 11° ESE 04:17:23 11° ESE 04:17:45 10° ESE visible
30 Oct -3.3 05:50:05 15° SW 05:52:35 59° SSE 05:55:50 10° ENE visible
